This is the latest recevied weather packets stored in our database for station/object IU1OLT-7. If no packets are shown the sender has not sent any weather packets the latest 1 day(s).
| Time | Temp. | Humidity | Pressure | Rain* | Wind** | Luminosity | Snow |
|---|---|---|---|---|---|---|---|
| 1788594999 | 28.33° C | 23% | 1024.2 hPa | - | - | - | - |
| 1788594093 | 27.22° C | 26% | 1024 hPa | - | - | - | - |
| 1788593193 | 26.67° C | 26% | 1023.9 hPa | - | - | - | - |
| 1788592293 | 25° C | 25% | 1023.9 hPa | - | - | - | - |
| 1788591393 | 25° C | 26% | 1023.9 hPa | - | - | - | - |
| 1788589601 | 25° C | 25% | 1023.8 hPa | - | - | - | - |
| 1788588699 | 25° C | 21% | 1023.9 hPa | - | - | - | - |
| 1788587791 | 23.33° C | 27% | 1023.8 hPa | - | - | - | - |
| 1788586891 | 22.78° C | 25% | 1023.7 hPa | - | - | - | - |
| 1788585991 | 22.22° C | 25% | 1023.7 hPa | - | - | - | - |
| 1788584191 | 22.22° C | 23% | 1023.6 hPa | - | - | - | - |
| 1788583291 | 23.89° C | 19% | 1023.4 hPa | - | - | - | - |
| 1788582391 | 25° C | 22% | 1023.3 hPa | - | - | - | - |
| 1788581491 | 24.44° C | 15% | 1023.3 hPa | - | - | - | - |
| 1788579691 | 24.44° C | 14% | 1023.6 hPa | - | - | - | - |
| 1788578791 | 24.44° C | 14% | 1023.6 hPa | - | - | - | - |
| 1788577897 | 24.44° C | 15% | 1023.7 hPa | - | - | - | - |
| 1788576997 | 23.89° C | 15% | 1023.8 hPa | - | - | - | - |
| 1788576091 | 23.89° C | 13% | 1023.8 hPa | - | - | - | - |
| 1788575191 | 24.44° C | 13% | 1023.8 hPa | - | - | - | - |
| 1788574291 | 24.44° C | 13% | 1023.9 hPa | - | - | - | - |
| 1788573391 | 23.89° C | 14% | 1024 hPa | - | - | - | - |
| 1788572491 | 23.89° C | 13% | 1024 hPa | - | - | - | - |
| 1788571598 | 24.44° C | 13% | 1024 hPa | - | - | - | - |
| 1788569797 | 24.44° C | 15% | 1024 hPa | - | - | - | - |
* Rain since midnight (hover to see other rain measurements)
** Current wind speed in m/s (hover to see current wind gust speed)